Simultaneous Nadir Overpasses (SNOs) Predictions

Prediction of SNOs between GOES-16 and NOAA-20 Satellite Orbit:

Table of predicted SNOs for the next 14.0 days since TLE Epoch: 9/28/2024
Index Date Time (GOES-16) GOES-16 Lat,Lon NOAA-20 Lat,Lon Distance(km) Time Diff (sec)
1 09/29/2024 06:28:03 0.06, -75.20 0.33, -76.35 131.14 80
2 09/30/2024 06:12:01 0.06, -75.21 -0.71, -71.83 385.19 80
3 10/01/2024 18:31:19 -0.05, -75.24 -0.48, -77.15 217.30 80
4 10/02/2024 18:15:16 -0.05, -75.25 0.56, -72.63 299.63 80
5 10/04/2024 06:34:27 0.05, -75.26 0.63, -77.91 302.11 80
6 10/05/2024 06:18:23 0.05, -75.27 -0.36, -73.38 215.00 80
7 10/06/2024 18:37:42 -0.05, -75.31 -0.81, -78.70 386.81 80
8 10/07/2024 18:21:38 -0.05, -75.32 0.19, -74.17 130.45 80
9 10/09/2024 06:43:28 0.04, -75.33 0.98, -79.46 470.80 80
10 10/10/2024 06:22:05 0.04, -75.35 -0.03, -74.93 46.54 80
